Regional Weather Roundup
Issued by NWS

Home | Current Version | Previous Version | Graphics & Text | Print | Product List | Glossary On
Versions: 1 2 3 4 5 6 7 8 9 10 11 12 13 14 15 16 17 18 19 20 21 22 23 24 25 26 27 28 29 30 31 32 33 34 35 36 37 38 39 40 41 42 43 44 45 46 47 48 49 50
000
ASUS43 KDTX 161210
RWRMI
MICHIGAN HOURLY REGIONAL WEATHER ROUNDUP
NATIONAL WEATHER SERVICE DETROIT/PONTIAC MI
800 AM EDT WED AUG 16 2017

NOTE: "FAIR" INDICATES FEW OR NO CLOUDS BELOW 12,000 FEET WITH NO
SIGNIFICANT WEATHER AND/OR OBSTRUCTION TO VISIBILITY.

MIZ047>049-052>055-059>063-066>070-074>076-081>083-161300-
SOUTHEAST LOWER MICHIGAN

CITY           SKY/WX    TMP DP  RH WIND       PRES   REMARKS
ADRIAN         SUNNY     65  61  87 NE3       30.08R
6HR MIN TEMP:  61; 6HR MAX TEMP:  67;

ALMA           MOSUNNY   59  58  96 CALM      30.08R
ANN ARBOR      SUNNY     63  60  90 CALM      30.07R
BAD AXE        MOSUNNY   57  56  97 CALM      30.10R FOG
CARO           SUNNY     58  56  92 CALM      30.09S
DETROIT CITY   SUNNY     65  60  84 NE3       30.09R
6HR MIN TEMP:  61; 6HR MAX TEMP:  67;

DETROIT        PTSUNNY   68  59  73 N5        30.08R
6HR MIN TEMP:  64; 6HR MAX TEMP:  69;

FLINT          MOSUNNY   62  58  86 E5        30.08R
6HR MIN TEMP:  58; 6HR MAX TEMP:  63;

GROSSE ILE     PTSUNNY   68  54  62 E5        30.06S
6HR MIN TEMP:  62; 6HR MAX TEMP:  68;

HILLSDALE      PTSUNNY   64  63  94 SE6       30.06S FOG
HOWELL         LGT RAIN  63  60  90 CALM      30.08R
6HR MIN TEMP:  59; 6HR MAX TEMP:  64; 6HR PCP:  0.02;


CITY           SKY/WX    TMP DP  RH WIND       PRES   REMARKS
JACKSON        MOSUNNY  N/A N/A N/A SE8       30.07R
LAMBERTVILLE   SUNNY     64  63  97 CALM      30.06R
6HR MIN TEMP:  60; 6HR MAX TEMP:  69;

LANSING        SUNNY     67  59  75 SE5       30.07R
6HR MIN TEMP:  62; 6HR MAX TEMP:  67;

LAPEER         FAIR      58  57  96 S6        30.10R
6HR MIN TEMP:  54; 6HR MAX TEMP:  59;

MASON          SUNNY     66  59  77 SE5       30.07S
MONROE         PTSUNNY   67  62  83 N5        30.07R
MT. CLEMENS    MOSUNNY   64  63  96 CALM      30.08R
6HR MIN TEMP:  59; 6HR MAX TEMP:  64;

PONTIAC        MOSUNNY   65  59  81 CALM      30.08R
6HR MIN TEMP:  59; 6HR MAX TEMP:  65;

PORT HOPE        N/A     62  60  93 SW3       30.08R
6HR MIN TEMP:  59; 6HR MAX TEMP:  69;

PORT HURON     SUNNY     59  57  94 CALM      30.09S
TRI CITIES     MOSUNNY   64  62  93 E3        30.09S
6HR MIN TEMP:  60; 6HR MAX TEMP:  64;

MIDLAND        FAIR      62  61  95 E3        30.08S
6HR MIN TEMP:  56; 6HR MAX TEMP:  62;

TROY           SUNNY     65  59  81 E3        30.10R
SAGINAW HB     SUNNY     59  57  94 CALM      30.08S
$$
MIZ043>046-050>051-056>058-064>065-071>073-077>080-161300-
SOUTHWEST LOWER MICHIGAN

CITY           SKY/WX    TMP DP  RH WIND       PRES   REMARKS
BATTLE CREEK   SUNNY     67  64  90 SE6       30.05S
6HR MIN TEMP:  65; 6HR MAX TEMP:  68;

BENTON HARBOR  MOSUNNY   61  59  93 CALM      30.03R
6HR MIN TEMP:  58; 6HR MAX TEMP:  62;

BIG RAPIDS     MOSUNNY   56  54  92 CALM      30.07R
6HR MIN TEMP:  54; 6HR MAX TEMP:  58;

COLDWATER      SUNNY     66  66  99 SE6       30.05R
6HR MIN TEMP:  62; 6HR MAX TEMP:  66;

FREMONT        FAIR      62  60  93 E5        30.04S
6HR MIN TEMP:  61; 6HR MAX TEMP:  63;

HOLLAND        MOSUNNY   63  60  90 E5        30.04R
6HR MIN TEMP:  59; 6HR MAX TEMP:  65;

GRAND RAPIDS   PTSUNNY   64  62  93 E5        30.05R
6HR MIN TEMP:  61; 6HR MAX TEMP:  64;

IONIA          FAIR      61  61  97 E3        30.06R FOG
6HR MIN TEMP:  59; 6HR MAX TEMP:  63;

KALAMAZOO      SUNNY     64  60  87 CALM      30.05R
6HR MIN TEMP:  61; 6HR MAX TEMP:  65;

LUDINGTON      PTSUNNY   57  56  96 CALM      30.04S
6HR MIN TEMP:  55; 6HR MAX TEMP:  58;

MARSHALL       SUNNY     64  64  97 CALM      30.05S FOG
6HR MIN TEMP:  63; 6HR MAX TEMP:  65;

MOUNT PLEASANT MOSUNNY   60  58  94 CALM      30.07S
6HR MIN TEMP:  57; 6HR MAX TEMP:  62;

MUSKEGON       MOSUNNY   63  59  87 CALM      30.04R
6HR MIN TEMP:  59; 6HR MAX TEMP:  65;

SOUTH HAVEN    MOSUNNY   62  60  96 E3        30.03R
$$
MIZ016>042-161300-
NORTHERN LOWER MICHIGAN

CITY           SKY/WX    TMP DP  RH WIND       PRES   REMARKS
ALPENA         MOSUNNY   61  59  93 CALM      30.11R
6HR MIN TEMP:  55; 6HR MAX TEMP:  61;

BEAVER ISLAND  MOSUNNY   59  59 100 E5        30.08S
6HR MIN TEMP:  56; 6HR MAX TEMP:  61;

BELLAIRE       CLOUDY    57  56  95 CALM      30.08R
6HR MIN TEMP:  52; 6HR MAX TEMP:  57;

CADILLAC       MOSUNNY   60  57  89 E3        30.08R
CHARLEVOIX     CLOUDY    62  62 100 SE6       30.10S
FRANKFORT      MOSUNNY   62  62  99 CALM      30.06R
GAYLORD        CLOUDY    59  58  96 SE6       30.11R FOG
6HR MIN TEMP:  52; 6HR MAX TEMP:  59;

GRAYLING       FOG       55  54  94 E3        30.11R VSB 3/4
6HR MIN TEMP:  49; 6HR MAX TEMP:  55;

HARBOR SPRINGS CLOUDY    60  59  95 E9        30.10R
HOUGHTON LAKE  CLOUDY    59  57  93 E3        30.10R
6HR MIN TEMP:  54; 6HR MAX TEMP:  59;

OSCODA         CLOUDY    67  65  91 S5        30.09R
6HR MIN TEMP:  57; 6HR MAX TEMP:  67;

PELLSTON       CLOUDY    54  54 100 CALM      30.11R
6HR MIN TEMP:  49; 6HR MAX TEMP:  54;

ROGERS CITY    CLOUDY    63  58  83 SE5       30.11R
TRAVERSE CITY  CLOUDY    63  59  87 CALM      30.06R
6HR MIN TEMP:  58; 6HR MAX TEMP:  63;

$$
MIZ007>008-015-161300-
EASTERN UPPER MICHIGAN

CITY           SKY/WX    TMP DP  RH WIND       PRES   REMARKS
KINROSS        CLOUDY    57  54  89 E8        30.12R
6HR MIN TEMP:  54; 6HR MAX TEMP:  58;

MACKINAC ISLAN CLOUDY    64  60  87 SE9       30.10R
6HR MIN TEMP:  60; 6HR MAX TEMP:  64;

NEWBERRY       CLOUDY    51  51  97 E3        30.10S
6HR MIN TEMP:  49; 6HR MAX TEMP:  52;

S. S. MARIE    CLOUDY    57  52  83 E5        30.11S
6HR MIN TEMP:  54; 6HR MAX TEMP:  60;

MUNISING         N/A     53  53 100 S5        30.09R
6HR MIN TEMP:  49; 6HR MAX TEMP:  53;

$$
MIZ004>006-011>014-085-161300-
CENTRAL UPPER MICHIGAN

CITY           SKY/WX    TMP DP  RH WIND       PRES   REMARKS
MANISTIQUE     CLOUDY    55  49  81 CALM      30.08S
6HR MIN TEMP:  53; 6HR MAX TEMP:  55;

ESCANABA       FOG       53  53 100 NW5       30.09R VSB 1/4
6HR MIN TEMP:  51; 6HR MAX TEMP:  55;

MENOMINEE      CLOUDY    56  55  97 CALM      30.08S FOG
6HR MIN TEMP:  55; 6HR MAX TEMP:  62;

SAWYER-GWINN   FOG       48  48 100 CALM      30.10R VSB 1/2
$$
MIZ001>003-009>011-084-161300-
WESTERN UPPER MICHIGAN

CITY           SKY/WX    TMP DP  RH WIND       PRES   REMARKS
IRON MOUNTAIN  FOG       52  50  93 CALM      30.09R VSB 1/4
6HR MIN TEMP:  49; 6HR MAX TEMP:  54;

HOUGHTON       MOSUNNY   53  50  89 E3        30.08R
6HR MIN TEMP:  51; 6HR MAX TEMP:  56;

COPPER HARBOR    N/A     56  53  90 CALM      30.08R
6HR MIN TEMP:  52; 6HR MAX TEMP:  56;

IRONWOOD       PTCLDY    56  55  97 NE5       30.06S
6HR MIN TEMP:  48; 6HR MAX TEMP:  56;

$$

ABBREVIATIONS USED IN REMARKS
   TC - TEMPERATURE IN CELSIUS
  WCI - WIND CHILL INDEX
   HX - HEAT INDEX
  VSB - VISIBILITY





USA.gov is the U.S. government's official web portal to all federal, state and local government web resources and services.